Regional Weather Roundup
Issued by NWS

Home | Current Version | Previous Version | Text Only | Print | Product List | Glossary Off
Versions: 1 2 3 4 5 6 7 8 9 10 11 12 13 14 15 16 17 18 19 20 21 22 23 24 25 26 27 28 29 30 31 32 33 34 35 36 37 38 39 40 41 42 43 44 45 46 47 48 49 50

000
ASUS43 KFSD 161202
RWRSD

WEATHER ROUNDUP FOR SOUTH DAKOTA
NATIONAL WEATHER SERVICE SIOUX FALLS SD
600 AM CST MON JAN 16 2017

NOTE: "FAIR" INDICATES FEW OR NO CLOUDS BELOW 12,000 FEET WITH NO
SIGNIFICANT WEATHER AND/OR OBSTRUCTIONS TO VISIBILITY.


SDZ001>005-009-010-012>017-161300-
NORTHWEST AND NORTH CENTRAL SOUTH DAKOTA

CITY           SKY/WX    TMP DP  RH WIND       PRES   REMARKS
BUFFALO          N/A     13   3  64 W8        30.00R WCI   2
FAITH            N/A     15   5  64 NW13      30.05S WCI   1
MOBRIDGE       CLOUDY     0  -5  79 CALM      30.05R
$$

SDZ012>016-024>037-041>051-057-063-072>074-161300-
SOUTHWEST AND SOUTH CENTRAL SOUTH DAKOTA

CITY           SKY/WX    TMP DP  RH WIND       PRES   REMARKS
RAPID CTY ARPT CLOUDY    23  12  62 NW9       30.05S WCI  13
PIERRE         CLOUDY     7   4  87 NW3       30.07F
CUSTER         CLOUDY    27  14  58 CALM      30.01S
ELLSWORTH AFB  CLOUDY    31   8  39 N12       30.04S WCI  21
PHILIP         CLOUDY     8   4  83 W6        30.07S WCI  -2
PINE RIDGE     CLOUDY    23  21  92 CALM      30.05R
SPEARFISH      FAIR      23   7  50 W12       30.07S WCI  12
WINNER         FAIR      21  16  81 NW6       30.05S WCI  13
$$

SDZ004>011-016>023-039-040-161300-
NORTHEAST SOUTH DAKOTA

CITY           SKY/WX    TMP DP  RH WIND       PRES   REMARKS
ABERDEEN       CLOUDY    -1  -6  79 S7        30.10S WCI -14
WATERTOWN      CLOUDY    12   9  87 CALM      30.08S FOG
BROOKINGS      CLOUDY    12   9  87 CALM      30.07F
SISSETON         N/A     17  13  84 S7        30.08S WCI   8
$$

SDZ017-020-022-023-036>040-048>070-161300-
SOUTHEAST SOUTH DAKOTA

CITY           SKY/WX    TMP DP  RH WIND       PRES   REMARKS
SIOUX FALLS    CLOUDY    25  20  81 N6        30.09S WCI  18
HURON          CLOUDY     7   4  87 N3        30.10F
CHAMBERLAIN    CLOUDY    17  13  86 NW3       30.08R
MITCHELL       CLOUDY    16  15  96 N3        30.10R
YANKTON        CLOUDY    30  27  86 E6        30.06F WCI  24
$$

ABBREVIATIONS USED IN REMARKS
   TC - TEMPERATURE IN CELSIUS
  WCI - WIND CHILL INDEX
   HX - HEAT INDEX
  VSB - VISIBILITY





USA.gov is the U.S. government's official web portal to all federal, state and local government web resources and services.